User: anonymous   Login
Location: Unspecified
(0.0000°N, 0.0000°E)
Time: 11:24:27
(UTC+00:00)
Language:

NNS O-32 - Orbit

View from above orbital plane
View from above orbital plane
View from above satellite
View from above satellite

Ground track
Ground track

The orbit data is extracted from the following two-line orbital elements,

1 19071U 88033B   18267.57378510 +.00000037 +00000-0 +62752-4 0  9996
2 19071 090.3635 290.0131 0186827 298.9091 235.3787 13.27615046472993
Epoch (UTC): 24 September 2018 13:46:15
Eccentricity: 0.0186827
inclination: 90.3635°
perigee height: 1015 km
apogee height: 1296 km
right ascension of ascending node: 290.0131°
argument of perigee: 298.9091°
revolutions per day: 13.27615046
mean anomaly at epoch: 235.3787°
orbit number at epoch: 47299

The dashed part of the orbit path shows where the satellite is in the earth's shadow,  

DLR